Regional Weather Roundup
Issued by NWS Goodland, KS

Home | Current Version | Previous Version | Graphics & Text | Print | Product List | Glossary On
Versions: 1 2 3 4 5 6 7 8 9 10 11 12 13 14 15 16 17 18 19 20 21 22 23 24 25 26 27 28 29 30 31 32 33 34 35 36 37 38 39 40 41 42 43 44 45 46 47 48 49 50
000
ASUS43 KGLD 230508
RWRGLD

GOODLAND FORECAST AREA HOURLY WEATHER ROUNDUP
NATIONAL WEATHER SERVICE GOODLAND KS
1100 PM MDT WED MAR 22 2017

...OFFICIAL OBSERVATIONS...

CITY           SKY/WX    TMP DP  RH WIND       PRES   REMARKS
GOODLAND KS    CLOUDY    46  37  71 SE24G33   29.90F
HILL CITY KS   CLOUDY    47  36  65 SE8       30.01F
IMPERIAL NEB   CLOUDY    45  33  63 SE17G25   29.92F
MCCOOK NEB     CLOUDY    44  35  70 SE12      29.96F
AKRON CO       CLOUDY    46  35  65 SE15      29.84F
BURLINGTON CO  CLOUDY    48  39  71 S23       29.88F
LIMON CO       CLOUDY    46  39  76 SE10      29.88F
$$

...UNOFFICIAL OBSERVATIONS...

CITY           SKY/WX    TMP DP  RH WIND       PRES   REMARKS
LENORA KS        N/A     45  32  60 SE8         N/A
NORTON KS      CLEAR     45  30  57 SE13      29.99F
SHARON SPRINGS   N/A     48  40  75 SE16G28     N/A
TRENTON NEB      N/A     42  32  68 S12         N/A
YUMA CO        FAIR      43  36  75 SE9       29.86F
$$




USA.gov is the U.S. government's official web portal to all federal, state and local government web resources and services.